EW5610 Weather Reports


time (UTC)temp
C
wind
direction
speed
KPH
gust
KPH
rain 1hr
cm
rain 24hr
cm
rain mn
cm
humidity
%
barometer
mb
20260502191551 12 165 3.2 17.7 0.00 0.03 0.03 75 1007.8
20260502190052 12 172 6.4 16.1 0.00 0.03 0.03 76 1008.0
20260502184549 12 155 6.4 19.3 0.00 0.03 0.03 76 1008.2
20260502183047 11 206 8.0 12.9 0.00 0.03 0.03 78 1008.3
20260502181544 11 211 1.6 12.9 0.00 0.03 0.03 80 1008.4
20260502163038 10 206 0.0 0.0 0.03 0.03 0.03 88 1009.0
20260502161537 10 206 0.0 6.4 0.03 0.03 0.03 88 1009.2
20260502151539 10 207 8.0 11.3 0.00 0.00 0.00 87 1009.5
20260502123027 10 210 0.0 0.0 0.00 0.00 0.00 84 1009.6
20260502121534 9 210 0.0 0.0 0.00 0.00 0.00 86 1009.8
20260502114525 8 210 0.0 0.0 0.00 0.00 0.00 88 1009.8
20260502113025 8 209 0.0 0.0 0.00 0.00 0.00 87 1009.9
20260502111524 8 209 0.0 0.0 0.00 0.00 0.00 87 1009.8
20260502110023 8 210 0.0 0.0 0.00 0.00 0.00 88 1009.4
20260502104538 8 210 0.0 0.0 0.00 0.00 0.00 88 1009.4
20260502103027 8 210 0.0 0.0 0.00 0.00 0.00 87 1009.3
20260502101521 7 209 0.0 0.0 0.00 0.00 0.00 87 1009.4
20260502091522 8 210 0.0 9.7 0.00 0.00 0.00 85 1009.1
20260502071510 8 209 1.6 11.3 0.00 0.00 0.00 79 1009.3
20260502070008 8 209 6.4 12.9 0.00 0.00 0.00 79 1009.3
20260502064510 8 209 6.4 11.3 0.00 0.00 0.00 78 1009.3
20260502063005 8 210 3.2 11.3 0.00 0.00 0.00 78 1009.1
20260502061503 8 210 3.2 8.0 0.00 0.00 0.00 78 1009.3
20260502060002 8 210 3.2 6.4 0.00 0.00 0.00 78 1009.6
20260502054502 8 210 4.8 11.3 0.00 0.00 0.00 77 1009.7
20260502053101 8 210 4.8 9.7 0.00 0.00 0.00 76 1009.5
20260502051652 9 210 4.8 12.9 0.00 0.00 0.00 75 1009.9
20260502050059 9 211 8.0 11.3 0.00 0.00 0.00 75 1009.9
20260502044605 9 211 6.4 11.3 0.00 0.00 0.00 76 1009.9
20260502043052 9 211 6.4 12.9 0.00 0.00 0.00 75 1009.9
20260502041550 9 212 6.4 11.3 0.00 0.00 0.00 75 1010.0
20260502040049 9 212 3.2 11.3 0.00 0.00 0.00 75 1009.9
20260502034549 9 211 4.8 11.3 0.00 0.00 0.00 74 1009.9
20260502033053 9 212 0.0 6.4 0.00 0.00 0.00 74 1010.0
20260502031606 10 212 3.2 8.0 0.00 0.00 0.00 73 1010.1
20260502030047 10 212 3.2 11.3 0.00 0.00 0.00 72 1010.0
20260502024552 10 212 3.2 9.7 0.00 0.00 0.00 71 1009.9
20260502023046 10 212 4.8 9.7 0.00 0.00 0.00 71 1010.1
20260502021545 10 212 3.2 8.0 0.00 0.00 0.00 70 1010.0
20260502020050 10 212 1.6 12.9 0.00 0.00 0.00 69 1009.9
20260502014544 10 212 4.8 11.3 0.00 0.00 0.00 69 1010.0
20260502013048 10 212 0.0 11.3 0.00 0.00 0.00 68 1009.9
20260502011549 10 212 9.7 16.1 0.00 0.00 0.00 67 1010.1
20260502010047 10 212 3.2 14.5 0.00 0.00 0.00 66 1009.9
20260502004543 10 213 6.4 14.5 0.00 0.03 0.00 64 1009.6
20260502003041 11 215 3.2 16.1 0.00 0.03 0.00 62 1009.4
20260502001541 11 215 9.7 20.9 0.00 0.03 0.00 60 1009.3
20260502000040 12 216 9.7 20.9 0.00 0.03 0.00 58 1008.8
20260501234550 12 219 8.0 27.4 0.00 0.03 0.00 53 1008.5
20260501233040 13 211 6.4 17.7 0.00 0.03 0.00 47 1008.3
20260501231554 14 213 11.3 20.9 0.00 0.03 0.00 39 1008.0
20260501230039 14 219 8.0 20.9 0.00 0.03 0.00 38 1007.8
20260501224539 14 211 9.7 19.3 0.00 0.03 0.00 38 1007.8
20260501223038 14 215 14.5 27.4 0.00 0.03 0.00 38 1007.8
20260501221537 15 221 6.4 27.4 0.00 0.03 0.00 38 1007.7
20260501220036 15 218 6.4 17.7 0.00 0.03 0.00 38 1007.5
20260501214549 15 205 12.9 24.1 0.00 0.03 0.00 37 1007.6
20260501213039 15 213 8.0 22.5 0.00 0.03 0.00 38 1007.3
20260501211534 15 215 8.0 27.4 0.00 0.03 0.00 39 1007.3
20260501210033 15 211 11.3 20.9 0.00 0.03 0.00 39 1007.2
20260501204532 15 228 12.9 27.4 0.00 0.03 0.00 39 1007.3
20260501203031 14 192 11.3 25.7 0.00 0.03 0.00 41 1007.2
20260501201537 15 229 12.9 24.1 0.00 0.03 0.00 40 1007.3
20260501200030 14 250 12.9 30.6 0.00 0.03 0.00 41 1007.3
20260501194533 15 207 19.3 29.0 0.00 0.03 0.00 41 1007.2
20260501193032 15 204 6.4 20.9 0.00 0.03 0.00 43 1007.3